Погода в Юсте

Погода в Юсте : погода сейчас, прогноз погоды и архив. Всё, что Вы хотите узнать о погоде в Юсте!

Хотите узнать прогноз погоды в Юсте? Тогда Вам сюда: Погода в Юсте

Поиск расширенной информации на нашем сайте:

Другие новости

Новости СМИ2

Главная страница сайта

Новости сайта

03.07.2017

Напоминаем, что на нашем специализированном сайте Метеоцентр.Азия вы можете получить высокодетализированные автоматические прогнозы погоды по пунктам России, СНГ и мира в авиационном формате (включающие направление и скорость ветра, видимость, явления погоды, количество и форму облачности, нижнюю и верхнюю границу облачности).

Рекомендуем: Мебель для гостиной мебель в гостиную.

Погода в Юсте - сегодня

Время (UTC), дата Ветер
(°,м/с) 
Видим.   Явления Облачность Т
(°С)
Тd
(°С)
f(%) Тe
(°С)
Pmin
(гПа)
dP
(гПа)
Po
(мм)
O2
(г/м3)
Тmin Tmax R s Состояние
почвы
00 18.08.17 060 (СВ) 10 км    ясно 
+17.8 +7.3 50 +18  1017.7  -0.5  763  287           
03 18.08.17 070 (В) 20000 м    4/0 средняя, верхняя 
[Ac trans|Ci fib]
+18.9 +5.4 41 +19  1018.2  0.5  763  287  +16.4        сухая 
06 18.08.17 080 (В) 20000 м    ясно средняя, верхняя 
[Ac trans|Ci fib]
+31 +2.5 16 +31  1018.2  0.1  763  276           
09 18.08.17 090 (В) 7-11{14}  20000 м  пыльная буря  8/0 средняя, верхняя 
[As trans|Ci fib]
+34.4 -1.6 10 +34  1017.5  -0.7  763  273           
12 18.08.17 090 (В) 5-11{14}  20000 м    8/0 средняя, верхняя 
[As trans|Ci fib]
+34.6 -3.1 9 +35  1017  -0.5  763  273           
15 18.08.17 160 (Ю) 5-11  20000 м    6/0 средняя, верхняя 
[As trans|Ci fib]
+32.8 +0.6 13 +33  1017.2  0.2  763  274    +35.3       
18 18.08.17 170 (Ю) 2{11}  10 км    3/0 средняя 
[As trans]
+24.9 -0.3 19 +25  1018.7  1.5  764  282           
21 18.08.17 050 (СВ) 10 км    3/0 средняя 
[As trans]
+20.8 +0.5 26 +21  1018.4  -0.3  764  286           
00 19.08.17 190 (Ю) 10 км    3/0 средняя 
[As trans]
+19.5 +1.2 29 +21  1018.5  764  287           
03 19.08.17 090 (В) 20000 м    ясно 
+17.3 +1.4 34 +19  1019.1  0.6  764  289  +16.1        сухая 
06 19.08.17 100 (В) 20000 м    ясно 
+30.6 +1 15 +31  1019.6  0.6  764  277           
09 19.08.17 140 (ЮВ) 20000 м    3/0 верхняя 
[Ci fib]
+35.1 -2.7 9 +35  1019  -0.7  764  273           
12 19.08.17 110 (В) 20000 м    3/0 верхняя 
[Ci fib]
+35.8 -2.9 8 +36  1018.3  -0.6  764  272           
15 19.08.17 140 (ЮВ) 20000 м    6/0 верхняя 
[Ci fib]
+33.7 -1.4 11 +34  1018.4  764  274    +36.2       
18 19.08.17 160 (Ю) 10 км    ясно 
+26.4 -0.8 17 +26  1019.7  1.3  764  281           
21 19.08.17 100 (В) 10 км    ясно 
+21.7 +0 24 +22  1019.7  764  285           
00 20.08.17 080 (В) 10 км    ясно 
+19.1 +7.4 47 +20  1019.6  764  287           
03 20.08.17 070 (В) 20000 м    9/0 средняя, верхняя 
[Ac und|Cs]
+22.8 +3.4 28 +23  1019.7  0.1  765  284  +19.1        сухая 
06 20.08.17 120 (ЮВ) 20000 м    9/0 средняя 
[Ac cuf]
+27 +8.4 31 +27  1020.2  0.5  765  279           
09 20.08.17 140 (ЮВ) 4-11{11}  20000 м    9/6 600 м кучево-дожд., средняя 
[Cb calv|Ac cuf]
+32.2 +6.1 20 +32  1020  -0.3  765  275           
12 20.08.17 120 (ЮВ) 4{14}  20000 м    9/8 600 м кучево-дожд., средняя 
[Cb calv|Ac cuf]
+29.7 +4.9 21 +30  1020.2  0.3  765  277           
15 20.08.17 100 (В) 20000 м    9/9 600 м 
[Sc]
+30.5 +4.4 19 +31  1019.4  -0.9  764  276    +32.6       
18 20.08.17 080 (В) 10 км    9/9 600 м 
[Sc]
+26.5 +9.9 35 +27  1020.1  0.7  765  279           
21 20.08.17 090 (В) 10 км    9/9 600 м 
[Sc]
+24.1 +8 36 +24  1019.4  -0.7  764  282           
00 21.08.17 070 (В) 10 км    8/8 600 м 
[Sc]
+22.8 +4 29 +23  1018.6  -0.8  764  283           
Время (UTC), дата Ветер
(°,м/с) 
Видим.   Явления Облачность Т
(°С)
Тd
(°С)
f(%) Тe
(°С)
Pmin
(гПа)
dP
(гПа)
Po
(мм)
O2
(г/м3)
Тmin Tmax R s Состояние
почвы

Для получения пояснительной информации подведите курсор к названию столбца.

ПОГОДА в Юсте - архив

Всё, что Вы хотите узнать о погоде в Юсте - удобно и подробно!

Выберите нужную дату (начиная с 1 января 2015* года) и нажмите кнопку "Найти".
Будут отображены архивные сводки погоды по пункту Юста, начиная с указанной даты.


Отображать данные в формате CSV (для использования в таблицах Excel)


Внимание! Наш архив погоды предназначен исключительно для личного некоммерческого использования в познавательных целях. Если Вам необходимы официальные справки о состоянии погоды (для производственных, юридических, коммерческих и т.п. целей), обращайтесь в органы Росгидромета.

*Примечание: данная дата относится к архиву по метеостанциям СССР (Россия, СНГ, Балтия).
Архив по метеостанциям Зарубежной Европы и Азии (кроме Китая) хранится 10 дней, по другим регионам земного шара (Китай, Африка, Америка, Австралия, Океания) - 1 день.

Юста - район местоположения метеостанции


Название, широта, долгота, высота метеостанции:
Юста 47.1°ш. 46.3°д. 2 м над ур. моря [Российская Федерация]

Дополнительная информация

В oтличие oт бoльшинства пoгoдных сайтoв мы публикуем пoдрoбную метеoинфoрмацию в детальнoм прoфессиoнальнoм фoрмате.

Характеристики температуры и влажнoсти вoздуха измеряются на высoте 2 м в тени вдали oт зданий и деревьев.
Скoрoсть ветра измеряется на высoте 10 м (на урoвне рoста челoвека скoрoсть ветра ниже в 1.5-2 раза). Если метеoстанция нахoдится в гoрoде или в лесу, тo скoрoсть ветра занижена на 2-4 м/с пo сравнению с oткрытым местoм. Скoрoсть ветра над акватoриями крупных рек и oзёр, а также на вершинах хoлмoв на 2-5 м/с выше, чем в oбычных услoвиях.
Атмoсфернoе давление в разных тoчках местнoсти мoжет значительнo oтличаться oт давления на метеoстанции, в зависимoсти oт услoвий рельефа (при пoдъёме на 10 м давление пoнижается примернo на 1 мм рт.ст.).